TimeCST,TemperatureF,Dew PointF,Humidity,Sea Level PressureIn,VisibilityMPH,Wind Direction,Wind SpeedMPH,Gust SpeedMPH,PrecipitationIn,Events,Conditions,WindDirDegrees,DateUTC
12:52 AM,12.9,7.0,77,30.41,10.0,SW,9.2,-,N/A,,Clear,230,2012-11-27 06:52:00
1:52 AM,12.0,6.1,77,30.40,10.0,South,6.9,-,N/A,,Clear,190,2012-11-27 07:52:00
2:52 AM,14.0,7.0,74,30.39,10.0,SSW,8.1,-,N/A,,Clear,210,2012-11-27 08:52:00
3:52 AM,14.0,7.0,74,30.37,10.0,SW,9.2,-,N/A,,Clear,220,2012-11-27 09:52:00
4:52 AM,16.0,8.1,71,30.35,10.0,SSW,6.9,-,N/A,,Clear,210,2012-11-27 10:52:00
5:52 AM,17.1,9.0,71,30.35,10.0,SSW,6.9,-,N/A,,Clear,200,2012-11-27 11:52:00
6:52 AM,17.1,10.0,74,30.33,10.0,South,6.9,-,N/A,,Clear,180,2012-11-27 12:52:00
7:52 AM,19.0,12.0,74,30.32,10.0,South,9.2,-,N/A,,Clear,190,2012-11-27 13:52:00
8:52 AM,23.0,16.0,74,30.30,10.0,South,10.4,-,N/A,,Clear,190,2012-11-27 14:52:00
9:52 AM,26.1,18.0,71,30.29,10.0,SW,16.1,-,N/A,,Clear,220,2012-11-27 15:52:00
10:52 AM,30.0,19.9,66,30.26,10.0,SW,20.7,26.5,N/A,,Clear,220,2012-11-27 16:52:00
11:52 AM,34.0,21.9,61,30.21,10.0,SSW,20.7,27.6,N/A,,Clear,210,2012-11-27 17:52:00
12:52 PM,36.0,23.0,59,30.18,10.0,SSW,23.0,28.8,N/A,,Clear,210,2012-11-27 18:52:00
1:52 PM,37.9,23.0,55,30.15,10.0,SSW,17.3,-,N/A,,Clear,210,2012-11-27 19:52:00
2:52 PM,37.9,23.0,55,30.14,10.0,SW,20.7,28.8,N/A,,Clear,230,2012-11-27 20:52:00
3:52 PM,36.0,23.0,59,30.17,10.0,WSW,16.1,-,N/A,,Clear,250,2012-11-27 21:52:00
4:52 PM,30.9,21.0,67,30.18,9.0,WSW,6.9,-,N/A,,Clear,240,2012-11-27 22:52:00
5:52 PM,26.1,18.0,71,30.21,8.0,West,4.6,-,N/A,,Clear,270,2012-11-27 23:52:00
6:52 PM,24.1,17.1,75,30.23,10.0,West,6.9,-,N/A,,Clear,280,2012-11-28 00:52:00
8:52 PM,25.0,19.0,78,30.27,10.0,NW,11.5,-,N/A,,Clear,310,2012-11-28 02:52:00
9:52 PM,21.0,17.1,85,30.28,9.0,NW,5.8,-,N/A,,Clear,310,2012-11-28 03:52:00
10:52 PM,19.9,16.0,85,30.30,8.0,NW,6.9,-,N/A,,Clear,310,2012-11-28 04:52:00
11:52 PM,19.9,17.1,89,30.31,9.0,NW,6.9,-,N/A,,Clear,320,2012-11-28 05:52:00